Regional Weather Roundup
Issued by NWS Green Bay, WI

Home | Current Version | Previous Version | Graphics & Text | Print | Product List | Glossary Off
Versions: 1 2 3 4 5 6 7 8 9 10 11 12 13 14 15 16 17 18 19 20 21 22 23 24 25 26 27 28 29 30 31 32 33 34 35 36 37 38 39 40 41 42 43 44 45 46 47 48 49 50

000
ASUS43 KGRB 310210
RWRGRB

NORTH-CENTRAL AND NORTHEAST WISCONSIN REGIONAL WEATHER ROUNDUP
NATIONAL WEATHER SERVICE GREEN BAY WI
900 PM CDT WED JUL 30 2014

WIZ005-009-010>012-018-019-310300-
NORTH CENTRAL WISCONSIN

CITY           SKY/WX    TMP DP  RH WIND       PRES   REMARKS
IRONWOOD       NOT AVBL
MANITOWISH WTR CLEAR     58  56  95 CALM      29.99S
ARBOR VITAE    PTCLDY    61  50  67 CALM      30.00S
EAGLE RIVER    PTCLDY    56  56 100 CALM      30.00S FOG
LAND O LAKES   PTCLDY    55  55  97 CALM      30.01R FOG
RHINELANDER    PTCLDY    59  53  80 E3        30.01S
PHILLIPS       MOCLDY    62  58  87 CALM      30.00S
ANTIGO         MOCLDY    56  54  92 CALM      30.02R
TOMAHAWK       PTCLDY    58  56  94 CALM      30.01R
MERRILL        PTCLDY    62  60  95 W5        30.00S
$$

WIZ013-073-310300-
NORTHEAST WISCONSIN

CITY           SKY/WX    TMP DP  RH WIND       PRES   REMARKS
IRON MOUNTAIN  MOCLDY    59  56  89 CALM      29.97R
MARINETTE      CLOUDY    59  55  88 CALM      29.96S
OCONTO         CLOUDY    61  60  96 CALM      29.97R
$$

WIZ017-030-035>037-045-310300-
CENTRAL WISCONSIN

CITY           SKY/WX    TMP DP  RH WIND       PRES   REMARKS
MEDFORD        CLOUDY    64  60  88 W7        30.02R
WAUSAU         LGT RAIN  66  58  75 W8        29.99R
MOSINEE        LGT RAIN  66  55  68 W5        30.01S
MARSHFIELD     MOCLDY    64  59  83 W6        30.01R
WISC RAPIDS    PTCLDY    66  56  70 W6        30.01S
STEVENS POINT  MOCLDY    67  53  60 W5        30.00S
WAUPACA        MOCLDY    68  53  57 CALM      29.99S
SHAWANO        RAIN      67  56  69 N12       30.00R
CLINTONVILLE   MOCLDY    66  52  59 W3        29.98S
$$

WIZ038-039-048-051-310300-
FOX VALLEY

CITY           SKY/WX    TMP DP  RH WIND       PRES   REMARKS
NWS GREEN BAY  MOCLDY    65  56  72 W6        29.98R
APPLETON       PTCLDY    66  52  59 W6        29.99S
OSHKOSH        PTCLDY    65  54  67 W3        29.99R
FOND DU LAC    PTCLDY    65  55  70 W5        30.00R
$$

WIZ022-050-052-310300-
EAST CENTRAL WISCONSIN

CITY           SKY/WX    TMP DP  RH WIND       PRES   REMARKS
STURGEON BAY   CLOUDY    61  54  77 S5        29.99R
MANITOWOC      CLEAR     61  55  81 S7        30.00R
SHEBOYGAN      PTCLDY    60  51  72 S5        30.00R
$$

LMZ563-521-522-541>543-310300-
LAKESHORE

STATION/POSITION TIME  TEMP    WIND        PRES    VSBY  WAVE
                       AIR SEA DIR/SP/G                  HT/PER
                 (UTC) (F)     (DEG/KT/KT) (MB)    (MI)  (FT/S)
SHEBOYGAN LKSHOR 0200   63     190/ 10/ 10 1015.9R
KEWAUNEE LKSHORE 0200   62     210/  8/ 11 1014.7S
NORTHPORT PIER   0200   62     220/  2/  6 1014.6S
N MID LAKE BUOY  0200   57 54  210/  8/  8 1014.6R         0
SISTER BAY LKSHO 0200   64     230/  8/  8   N/A
CHAMBERS ISLAND  0200   63     190/  1/  4 1014.6F
MENOMINEE LKSHOR 0200   63     130/  2/  3 1014.9F
$$



USA.gov is the U.S. government's official web portal to all federal, state and local government web resources and services.